Regional Weather Roundup
Issued by NWS

Home | Current Version | Previous Version | Text Only | Print | Product List | Glossary On
Versions: 1 2 3 4 5 6 7 8 9 10 11 12 13 14 15 16 17 18 19 20 21 22 23 24 25 26 27 28 29 30 31 32 33 34 35 36 37 38 39 40 41 42 43 44 45 46 47 48 49 50
278
ASUS43 KMKX 190259
RWRWI

WISCONSIN REGIONAL WEATHER ROUNDUP
NATIONAL WEATHER SERVICE MILWAUKEE/SULLIVAN WI
1000 PM CDT WED APR 18 2018

NOTE: "FAIR" INDICATES FEW OR NO CLOUDS BELOW 12,000 FEET WITH NO
SIGNIFICANT WEATHER AND/OR OBSTRUCTIONS TO VISIBILITY.

WIZ001-002-006>008-014>016-023>028-190400-
NORTHWEST WISCONSIN

CITY           SKY/WX    TMP DP  RH WIND       PRES   REMARKS
SUPERIOR ARPT  FAIR      29  19  65 CALM      30.22R
ASHLAND        FAIR      25  19  78 W5        30.20R WCI  19
HAYWARD        FAIR      29  15  56 NE3       30.17R
SIREN          FAIR      36  10  33 NE8G16    30.19R WCI  30
CUMBERLAND     FAIR      32  12  43 NE12      30.15R WCI  23
RICE LAKE      FAIR      33  17  51 N17       30.16R WCI  22
CHETEK         FAIR      34  19  52 N10       30.13R WCI  26
LADYSMITH      FAIR      35  18  49 N10       30.15R WCI  27
EAU CLAIRE     NOT AVBL
MENOMONIE      FAIR      37  22  55 N13       30.12R WCI  29
NEW RICHMOND   FAIR      35  16  45 NE10G21   30.15R WCI  27
OSCEOLA        FAIR      37  15  41 NE13      30.18R WCI  28
$$

WIZ003>005-009-010-017-018-190400-
NORTH CENTRAL WISCONSIN

CITY           SKY/WX    TMP DP  RH WIND       PRES   REMARKS
MANITOWISH WTR FAIR      31  13  48 N6        30.12R WCI  25
ARBOR VITAE    FAIR      32  23  70 N6        30.10R WCI  26
WOODRUFF       FAIR      32  23  70 N6        30.10R WCI  26
RHINELANDER    FAIR      31  19  61 N6        30.10R WCI  25
EAGLE RIVER    FAIR      30  16  56 N5        30.09R WCI  25
LAND O LAKES   FAIR      30  17  59 N3        30.11R
PHILLIPS       FAIR      31  16  53 N9        30.12R WCI  23
TOMAHAWK       FAIR      32  18  56 N7        30.10R WCI  26
MEDFORD        FAIR      34  21  60 NE15G23   30.08R WCI  24
MERRILL          N/A     34  22  61 N12       30.09R WCI  25
$$

WIZ029-030-035-036-043>047-190400-
CENTRAL WISCONSIN

CITY           SKY/WX    TMP DP  RH WIND       PRES   REMARKS
WAUSAU         FAIR      35  22  58 N12G18    30.06R WCI  27
MOSINEE        MOCLDY    36  23  60 N16G25    30.07R WCI  26
MARSHFIELD     FAIR      36  22  56 NE15G25   30.04R WCI  27
STEVENS POINT  FAIR      33  23  66 NE17G24   30.04R WCI  22
WAUPACA        FAIR      38  24  58 N16G28    30.03R WCI  28
WAUTOMA        MOCLDY    31  30  96 N5        30.04R WCI  26
WISC RAPIDS    FAIR      36  23  59 NE10      30.05R WCI  28
CAMP DOUGLAS   NOT AVBL
$$

WIZ011>013-019>022-031-037>040-048>050-190400-
NORTHEAST WISCONSIN

CITY           SKY/WX    TMP DP  RH WIND       PRES   REMARKS
ANTIGO         FAIR      32  21  65 N13       30.06R WCI  22
SHAWANO        FAIR      36  26  66 N10       30.06R WCI  28
OCONTO         FAIR      35  23  62 N7        30.05R WCI  29
STURGEON BAY   FAIR      34  25  69 N10       30.04R WCI  26
GREEN BAY      MOCLDY    36  25  64 N16       30.03R WCI  26
MANITOWOC      FAIR      35  26  69 N15G24    29.99R WCI  25
APPLETON       MOCLDY    34  23  64 N21G28    29.99R WCI  22
CLINTONVILLE   FAIR      36  24  61 N10       30.05R WCI  28
OSHKOSH        MOCLDY    35  27  72 N17       29.99R WCI  25
$$

WIZ032>034-041-042-053>061-190400-
SOUTHWEST WISCONSIN

CITY           SKY/WX    TMP DP  RH WIND       PRES   REMARKS
LA CROSSE      MOCLDY    34  32  92 N5        30.07R WCI  30
SPARTA         CLOUDY    31  31 100 CALM      30.05R
VIROQUA        CLOUDY    31  31 100 NW6       30.02S WCI  25
BOSCOBEL       LGT SNOW  33  31  92 CALM      30.07R FOG
PRAIRIE DU CHI LGT SNOW  32  31  94 NW7       30.06R WCI  26
PLATTEVILLE    CLOUDY    32  32 100 NW12      30.03R WCI  23
$$

WIZ056-057-062-063-064-067-068-190400-
SOUTH CENTRAL WISCONSIN

CITY           SKY/WX    TMP DP  RH WIND       PRES   REMARKS
REEDSBURG      CLOUDY    31  31 100 CALM      30.04R
BARABOO/DELLS  MIX PCPN  31  31  98 CALM      30.02R
LONE ROCK      LGT SNOW  32  30  93 NW10      30.05R FOG     WCI  24
MINERAL POINT  LGT SNOW  32  32 100 NW12      30.01R WCI  23
MADISON        LGT SNOW  32  30  92 N12       30.00R FOG     WCI  23
MIDDLETON      CLOUDY    32  32  98 NW10      30.00R WCI  24
WATERTOWN      LGT SNOW  31  31 100 N7        29.96R WCI  25
MONROE         LGT SNOW  32  30  93 NW9G17    29.97R WCI  24
JANESVILLE     RAIN      32  32 100 N12       29.97R WCI  23
$$

WIZ051-052-058>065-066-070>072-190400-
SOUTHEAST WISCONSIN

CITY           SKY/WX    TMP DP  RH WIND       PRES   REMARKS
MILWAUKEE      LGT SNOW  34  33  96 N13       29.94R FOG     WCI  25
WAUKESHA       MIX PCPN  30  30 100 N7        29.95R WCI  23
MILWAUKEE/TIMM LGT SNOW  32  30  93 NE13      29.95R WCI  22
RACINE         LGT SNOW  34  32  92 NE14G25   29.94R FOG     WCI  25
BURLINGTON     LGT SNOW  32  30  93 N7        29.94R WCI  25
KENOSHA        SLEET     34  31  88 NE12      29.92R WCI  25
FOND DU LAC    CLOUDY    35  27  72 N17       29.99R WCI  25
SHEBOYGAN      CLOUDY    35  29  78 N14G22    29.96R WCI  26
WEST BEND      FLURRIES  32  32 100 NE9       29.96R WCI  24
JUNEAU         FLURRIES  31  30  98 N7        29.98R WCI  24
$$

LSZ147-162-190400-
LAKE SUPERIOR

STATION/POSITION TIME  TEMP    WIND        PRES    WAVE
                       AIR SEA DIR/SP/G            HT/PER
                 (UTC) (F)     (DEG/KT/KT) (MB)    (FT/S)
DEVILS ISLAND    0200   35     320/  8/  9 1023.3R
SAXON HARBOR     0240   28     170/  2/  4 1021.7R
$$

LMZ867-665-643>646-190400-
LAKE MICHIGAN

STATION/POSITION TIME  TEMP    WIND        PRES    WAVE
                       AIR SEA DIR/SP/G            HT/PER
                 (UTC) (F)     (DEG/KT/KT) (MB)    (FT/S)
NORTHPORT PIER   0240   34                 1016.6R
KEWAUNEE LAKESHO 0230   35     350/ 10/ 14 1015.5R
SHEBOYGAN LAKESH 0200   36      20/ 23/ 25 1014.6R
PORT WASHINGTON  0240   34      20/ 11/ 16 1015.6R
MILWAUKEE LAKESH 0230   33      20/ 16/ 18   N/A
KENOSHA   LAKESH 0200   34                 1012.9
$$

TC  - TEMPERATURE IN CELSIUS
VSB - VISIBILITY IN STATUTE MILES
WCI - WIND CHILL INDEX
HX  - HEAT INDEX





USA.gov is the U.S. government's official web portal to all federal, state and local government web resources and services.